Location: Newark
(53.0000°N, 1.0000°W)
Time: 07:19:46
(UTC+00:00)

N. Korean satellite - Visible Passes

Search period start: 20 November 2019 00:00
Search period end: 30 November 2019 00:00
Orbit: 456 x 506 km, 97.2° (Epoch: 19 November)

Date Brightness Start Highest point End Pass type
(mag) Time Alt. Az. Time Alt. Az. Time Alt. Az.
20 Nov 8.0 05:42:00 10° NNE 05:45:34 41° E 05:49:04 10° S visible
20 Nov 9.4 17:57:12 10° SW 18:00:05 21° W 18:03:00 10° NW visible
21 Nov 9.2 05:16:58 10° NE 05:20:01 23° E 05:23:00 10° SSE visible
21 Nov 7.2 06:50:04 10° N 06:53:31 37° WNW 06:56:55 10° SW visible
21 Nov 8.3 17:31:05 10° SSW 17:34:31 37° W 17:38:01 10° NNW visible
22 Nov 10.0 04:52:28 10° ENE 04:54:22 13° E 04:56:15 10° ESE visible
22 Nov 6.6 06:24:31 10° N 06:28:12 67° WNW 06:31:51 10° SSW visible
22 Nov 7.0 17:05:22 10° S 17:09:03 71° WSW 17:12:47 10° NNW visible
23 Nov 7.1 05:59:07 10° NNE 06:02:49 65° ESE 06:06:27 10° S visible
23 Nov 6.6 16:40:01 10° SSE 16:43:39 62° ENE 16:47:21 10° N visible
23 Nov 10.0 18:15:18 10° SW 18:17:26 15° W 18:19:37 10° NW visible
24 Nov 8.4 05:33:54 10° NNE 05:37:19 34° E 05:40:41 10° SSE visible
24 Nov 9.1 17:48:41 10° SSW 17:51:49 25° W 17:54:58 10° NW visible
25 Nov 9.5 05:08:59 10° NE 05:11:44 19° E 05:14:26 10° SE visible
25 Nov 6.9 06:41:48 10° N 06:45:21 44° WNW 06:48:49 10° SW visible
25 Nov 7.9 17:22:42 10° S 17:26:16 46° W 17:29:53 10° NNW visible
26 Nov 10.2 04:44:57 10° ENE 04:46:03 11° E 04:47:08 10° ESE visible
26 Nov 6.5 06:16:17 10° NNE 06:20:00 82° WNW 06:23:38 10° SSW visible
26 Nov 6.7 16:57:07 10° SSE 17:00:49 86° W 17:04:34 10° NNW visible
27 Nov 7.5 05:50:56 10° NNE 05:54:34 52° E 05:58:06 10° S visible
27 Nov 6.8 16:31:51 10° SSE 16:35:26 51° ENE 16:39:05 10° N visible
27 Nov 9.7 18:06:34 10° SW 18:09:08 18° W 18:11:43 10° NW visible
28 Nov 8.8 05:25:48 10° NNE 05:29:01 28° E 05:32:11 10° SSE visible
28 Nov 7.4 06:59:10 10° N 07:02:25 29° WNW 07:05:36 10° SW visible
28 Nov 8.7 17:40:12 10° SSW 17:43:31 30° W 17:46:52 10° NNW visible
29 Nov 9.7 05:01:01 10° NE 05:03:23 16° E 05:05:43 10° SE visible
29 Nov 6.7 06:33:31 10° N 06:37:07 53° WNW 06:40:38 10° SSW visible
29 Nov 7.4 17:14:20 10° S 17:17:59 56° W 17:21:41 10° NNW visible
